Вернуться в каталог

COSMOS 2041

АктивенВоенныеPO
NORAD 20235·PAYLOAD·🇷🇺 Russia

Запущен Sep 14, 1989 с Plesetsk Cosmodrome

Loading…

Ближайшие Пролёты (ближайшие 24 часа)

TLE

СвежийSource: Space-Track

Эпоха: Sep 14, 2026, 10:55 UTC

1 20235U 89074D   26257.45511056  .00000040  00000-0  15970-3 0  9998
2 20235  82.5866 152.4868 0007309 254.3343 280.9868 12.64847766707798

Отслеживайте COSMOS 2041 в реальном времени с AllMySat

Download on the App Store